"Period start","avg(HW err(1)/warn(2) (#))","avg(Visibility (m))","avg(Weather code (#))","avg(Precip intensity (mm/h))","min(HW err(1)/warn(2) (#))","max(HW err(1)/warn(2) (#))","std(HW err(1)/warn(2) (#))","med(HW err(1)/warn(2) (#))","min(Visibility (m))","max(Visibility (m))","std(Visibility (m))","med(Visibility (m))","min(Weather code (#))","max(Weather code (#))","std(Weather code (#))","med(Weather code (#))","min(Precip intensity (mm/h))","max(Precip intensity (mm/h))","std(Precip intensity (mm/h))","med(Precip intensity (mm/h))"
2016-09-24 00:00:00,2,7315,71,0.40,2,2,0,2,4422,11042,2303,6885,71,71,0,71,0.00,1.50,0.52,0.10
2016-09-24 00:10:00,2,7512,40,0.09,2,2,0,2,3843,10362,1976,7417,10,71,30,40,0.00,0.30,0.10,0.05
2016-09-24 00:20:00,2,12521,38,0.21,2,2,0,2,3877,32834,10014,7158,10,41,9,41,0.00,0.60,0.23,0.15
2016-09-24 00:30:00,2,5060,44,0.36,2,2,0,2,3887,6179,658,5224,41,54,5,41,0.15,0.85,0.19,0.30
2016-09-24 00:40:00,2,10505,28,0.03,2,2,0,2,5817,16856,3405,9588,10,54,22,10,0.00,0.10,0.04,0.00
2016-09-24 00:50:00,2,20677,18,0.01,2,2,0,2,10572,30497,5379,21056,0,71,23,10,0.00,0.05,0.02,0.00
2016-09-24 01:00:00,2,18646,71,0.18,2,2,0,2,5105,49339,15039,12561,71,71,0,71,0.00,0.45,0.15,0.17
2016-09-24 01:10:00,2,41886,14,0.01,2,2,0,2,20182,50000,9388,46934,0,71,28,0,0.00,0.05,0.02,0.00
2016-09-24 01:20:00,2,49720,0,0.00,2,2,0,2,48257,50000,581,50000,0,0,0,0,0.00,0.00,0.00,0.00
2016-09-24 01:30:00,2,49097,0,0.00,2,2,0,2,44887,50000,1633,50000,0,0,0,0,0.00,0.00,0.00,0.00
2016-09-24 01:40:00,2,30435,0,0.00,2,2,0,2,10082,50000,15743,34344,0,0,0,0,0.00,0.00,0.00,0.00
2016-09-24 01:50:00,2,14620,0,0.00,2,2,0,2,11764,17203,1519,14890,0,0,0,0,0.00,0.00,0.00,0.00
2016-09-24 02:00:00,2,16558,65,0.15,2,2,0,2,9501,29265,6026,16628,40,71,12,71,0.00,0.65,0.20,0.10
2016-09-24 02:10:00,2,39529,71,0.02,2,2,0,2,20812,50000,8990,40990,71,71,0,71,0.00,0.10,0.04,0.00
2016-09-24 02:20:00,2,49434,14,0.00,2,2,0,2,47439,50000,976,50000,0,71,28,0,0.00,0.00,0.00,0.00
2016-09-24 02:30:00,2,49780,0,0.00,2,2,0,2,49174,50000,311,50000,0,0,0,0,0.00,0.00,0.00,0.00
2016-09-24 02:40:00,2,44369,0,0.00,2,2,0,2,34992,50000,6186,47706,0,0,0,0,0.00,0.00,0.00,0.00
2016-09-24 02:50:00,2,43257,0,0.00,2,2,0,2,37426,50000,4889,42762,0,0,0,0,0.00,0.00,0.00,0.00
2016-09-24 03:00:00,2,34898,0,0.00,2,2,0,2,24760,46175,7436,33712,0,0,0,0,0.00,0.00,0.00,0.00
2016-09-24 03:10:00,2,47074,0,0.00,2,2,0,2,41727,50000,2811,48376,0,0,0,0,0.00,0.00,0.00,0.00
2016-09-24 03:20:00,2,50000,0,0.00,2,2,0,2,50000,50000,0,50000,0,0,0,0,0.00,0.00,0.00,0.00
2016-09-24 03:30:00,2,49840,0,0.00,2,2,0,2,49121,50000,313,50000,0,0,0,0,0.00,0.00,0.00,0.00
2016-09-24 03:40:00,2,48157,0,0.00,2,2,0,2,44577,50000,1948,49236,0,0,0,0,0.00,0.00,0.00,0.00
2016-09-24 03:50:00,2,49859,0,0.00,2,2,0,2,48589,50000,423,50000,0,0,0,0,0.00,0.00,0.00,0.00
2016-09-24 04:00:00,2,50000,0,0.00,2,2,0,2,50000,50000,0,50000,0,0,0,0,0.00,0.00,0.00,0.00
2016-09-24 04:10:00,2,50000,0,0.00,2,2,0,2,50000,50000,0,50000,0,0,0,0,0.00,0.00,0.00,0.00
2016-09-24 04:20:00,2,49880,0,0.00,2,2,0,2,48801,50000,360,50000,0,0,0,0,0.00,0.00,0.00,0.00
2016-09-24 04:30:00,2,49596,0,0.00,2,2,0,2,45959,50000,1212,50000,0,0,0,0,0.00,0.00,0.00,0.00
2016-09-24 04:40:00,2,49976,0,0.00,2,2,0,2,49762,50000,71,50000,0,0,0,0,0.00,0.00,0.00,0.00
2016-09-24 04:50:00,2,48252,0,0.00,2,2,0,2,42864,50000,2662,50000,0,0,0,0,0.00,0.00,0.00,0.00
2016-09-24 05:00:00,2,48106,0,0.00,2,2,0,2,42397,50000,2307,48734,0,0,0,0,0.00,0.00,0.00,0.00
2016-09-24 05:10:00,2,49226,0,0.00,2,2,0,2,45348,50000,1568,50000,0,0,0,0,0.00,0.00,0.00,0.00
2016-09-24 05:20:00,2,48330,0,0.00,2,2,0,2,39139,50000,3217,50000,0,0,0,0,0.00,0.00,0.00,0.00
2016-09-24 05:30:00,2,46944,0,0.00,2,2,0,2,31480,50000,5747,50000,0,0,0,0,0.00,0.00,0.00,0.00
2016-09-24 05:40:00,2,49396,0,0.00,2,2,0,2,45826,50000,1314,50000,0,0,0,0,0.00,0.00,0.00,0.00
2016-09-24 05:50:00,2,49955,0,0.00,2,2,0,2,49548,50000,136,50000,0,0,0,0,0.00,0.00,0.00,0.00
2016-09-24 06:00:00,2,49653,0,0.00,2,2,0,2,46530,50000,1041,50000,0,0,0,0,0.00,0.00,0.00,0.00
2016-09-24 06:10:00,2,49722,0,0.00,2,2,0,2,48582,50000,557,50000,0,0,0,0,0.00,0.00,0.00,0.00
2016-09-24 06:20:00,2,50000,0,0.00,2,2,0,2,50000,50000,0,50000,0,0,0,0,0.00,0.00,0.00,0.00
2016-09-24 06:30:00,2,49986,0,0.00,2,2,0,2,49859,50000,42,50000,0,0,0,0,0.00,0.00,0.00,0.00
2016-09-24 06:40:00,2,50000,0,0.00,2,2,0,2,50000,50000,0,50000,0,0,0,0,0.00,0.00,0.00,0.00
2016-09-24 06:50:00,2,49628,0,0.00,2,2,0,2,47223,50000,834,50000,0,0,0,0,0.00,0.00,0.00,0.00
2016-09-24 07:00:00,2,50000,0,0.00,2,2,0,2,50000,50000,0,50000,0,0,0,0,0.00,0.00,0.00,0.00
2016-09-24 07:10:00,2,50000,0,0.00,2,2,0,2,50000,50000,0,50000,0,0,0,0,0.00,0.00,0.00,0.00
2016-09-24 07:20:00,2,49724,0,0.00,2,2,0,2,47690,50000,684,50000,0,0,0,0,0.00,0.00,0.00,0.00
2016-09-24 07:30:00,2,38522,0,0.00,2,2,0,2,19642,50000,10411,42059,0,0,0,0,0.00,0.00,0.00,0.00
2016-09-24 07:40:00,2,42754,41,0.00,2,2,0,2,34731,50000,4420,42596,0,61,22,41,0.00,0.00,0.00,0.00
2016-09-24 07:50:00,2,46318,8,0.00,2,2,0,2,34359,50000,5451,50000,0,41,16,0,0.00,0.00,0.00,0.00
2016-09-24 08:00:00,2,34436,16,0.00,2,2,0,2,12323,50000,13389,35369,0,41,20,0,0.00,0.00,0.00,0.00
2016-09-24 08:10:00,2,37951,67,0.00,2,2,0,2,22479,50000,9648,38898,0,77,22,74,0.00,0.00,0.00,0.00
2016-09-24 08:20:00,2,48956,0,0.00,2,2,0,2,45461,50000,1697,50000,0,0,0,0,0.00,0.00,0.00,0.00
2016-09-24 08:30:00,2,36136,21,0.00,2,2,0,2,10784,50000,14641,43166,0,71,33,0,0.00,0.00,0.00,0.00
2016-09-24 08:40:00,2,47357,0,0.00,2,2,0,2,39480,50000,3316,48842,0,0,0,0,0.00,0.00,0.00,0.00
2016-09-24 08:50:00,2,50000,0,0.00,2,2,0,2,50000,50000,0,50000,0,0,0,0,0.00,0.00,0.00,0.00
2016-09-24 09:00:00,2,49826,0,0.00,2,2,0,2,48257,50000,523,50000,0,0,0,0,0.00,0.00,0.00,0.00
2016-09-24 09:10:00,2,50000,0,0.00,2,2,0,2,50000,50000,0,50000,0,0,0,0,0.00,0.00,0.00,0.00
2016-09-24 09:20:00,2,49997,0,0.00,2,2,0,2,49968,50000,10,50000,0,0,0,0,0.00,0.00,0.00,0.00
2016-09-24 09:30:00,2,50000,0,0.00,2,2,0,2,50000,50000,0,50000,0,0,0,0,0.00,0.00,0.00,0.00
2016-09-24 09:40:00,2,50000,0,0.00,2,2,0,2,50000,50000,0,50000,0,0,0,0,0.00,0.00,0.00,0.00
2016-09-24 09:50:00,2,50000,0,0.00,2,2,0,2,50000,50000,0,50000,0,0,0,0,0.00,0.00,0.00,0.00
2016-09-24 10:00:00,2,49961,0,0.00,2,2,0,2,49607,50000,118,50000,0,0,0,0,0.00,0.00,0.00,0.00
2016-09-24 10:10:00,2,50000,0,0.00,2,2,0,2,50000,50000,0,50000,0,0,0,0,0.00,0.00,0.00,0.00
2016-09-24 10:20:00,2,50000,0,0.00,2,2,0,2,50000,50000,0,50000,0,0,0,0,0.00,0.00,0.00,0.00
2016-09-24 10:30:00,2,50000,0,0.00,2,2,0,2,50000,50000,0,50000,0,0,0,0,0.00,0.00,0.00,0.00
2016-09-24 10:40:00,2,50000,0,0.00,2,2,0,2,50000,50000,0,50000,0,0,0,0,0.00,0.00,0.00,0.00
2016-09-24 10:50:00,2,50000,0,0.00,2,2,0,2,50000,50000,0,50000,0,0,0,0,0.00,0.00,0.00,0.00
2016-09-24 11:00:00,2,50000,0,0.00,2,2,0,2,50000,50000,0,50000,0,0,0,0,0.00,0.00,0.00,0.00
2016-09-24 11:10:00,2,50000,0,0.00,2,2,0,2,50000,50000,0,50000,0,0,0,0,0.00,0.00,0.00,0.00
2016-09-24 11:20:00,2,50000,0,0.00,2,2,0,2,50000,50000,0,50000,0,0,0,0,0.00,0.00,0.00,0.00
2016-09-24 11:30:00,2,50000,0,0.00,2,2,0,2,50000,50000,0,50000,0,0,0,0,0.00,0.00,0.00,0.00
2016-09-24 11:40:00,2,49897,0,0.00,2,2,0,2,48966,50000,310,50000,0,0,0,0,0.00,0.00,0.00,0.00
2016-09-24 11:50:00,2,50000,0,0.00,2,2,0,2,50000,50000,0,50000,0,0,0,0,0.00,0.00,0.00,0.00
2016-09-24 12:00:00,2,50000,0,0.00,2,2,0,2,50000,50000,0,50000,0,0,0,0,0.00,0.00,0.00,0.00
2016-09-24 12:10:00,2,50000,0,0.00,2,2,0,2,50000,50000,0,50000,0,0,0,0,0.00,0.00,0.00,0.00
2016-09-24 12:20:00,2,50000,0,0.00,2,2,0,2,50000,50000,0,50000,0,0,0,0,0.00,0.00,0.00,0.00
2016-09-24 12:30:00,2,49430,0,0.00,2,2,0,2,45491,50000,1360,50000,0,0,0,0,0.00,0.00,0.00,0.00
2016-09-24 12:40:00,2,50000,0,0.00,2,2,0,2,50000,50000,0,50000,0,0,0,0,0.00,0.00,0.00,0.00
2016-09-24 12:50:00,2,50000,0,0.00,2,2,0,2,50000,50000,0,50000,0,0,0,0,0.00,0.00,0.00,0.00
2016-09-24 13:00:00,2,50000,0,0.00,2,2,0,2,50000,50000,0,50000,0,0,0,0,0.00,0.00,0.00,0.00
2016-09-24 13:10:00,2,42161,0,0.00,2,2,0,2,23822,50000,9465,45974,0,0,0,0,0.00,0.00,0.00,0.00
2016-09-24 13:20:00,2,41183,0,0.00,2,2,0,2,32497,50000,5591,41542,0,0,0,0,0.00,0.00,0.00,0.00
2016-09-24 13:30:00,2,45377,0,0.00,2,2,0,2,31555,50000,7026,50000,0,0,0,0,0.00,0.00,0.00,0.00
2016-09-24 13:40:00,2,50000,0,0.00,2,2,0,2,50000,50000,0,50000,0,0,0,0,0.00,0.00,0.00,0.00
2016-09-24 13:50:00,2,50000,0,0.00,2,2,0,2,50000,50000,0,50000,0,0,0,0,0.00,0.00,0.00,0.00
2016-09-24 14:00:00,2,50000,0,0.00,2,2,0,2,50000,50000,0,50000,0,0,0,0,0.00,0.00,0.00,0.00
2016-09-24 14:10:00,2,50000,0,0.00,2,2,0,2,50000,50000,0,50000,0,0,0,0,0.00,0.00,0.00,0.00
2016-09-24 14:20:00,2,50000,0,0.00,2,2,0,2,50000,50000,0,50000,0,0,0,0,0.00,0.00,0.00,0.00
2016-09-24 14:30:00,2,50000,0,0.00,2,2,0,2,50000,50000,0,50000,0,0,0,0,0.00,0.00,0.00,0.00
2016-09-24 14:40:00,2,50000,0,0.00,2,2,0,2,50000,50000,0,50000,0,0,0,0,0.00,0.00,0.00,0.00
2016-09-24 14:50:00,2,50000,0,0.00,2,2,0,2,50000,50000,0,50000,0,0,0,0,0.00,0.00,0.00,0.00
2016-09-24 15:00:00,2,50000,0,0.00,2,2,0,2,50000,50000,0,50000,0,0,0,0,0.00,0.00,0.00,0.00
2016-09-24 15:10:00,2,50000,0,0.00,2,2,0,2,50000,50000,0,50000,0,0,0,0,0.00,0.00,0.00,0.00
2016-09-24 15:20:00,2,50000,0,0.00,2,2,0,2,50000,50000,0,50000,0,0,0,0,0.00,0.00,0.00,0.00
2016-09-24 15:30:00,2,50000,0,0.00,2,2,0,2,50000,50000,0,50000,0,0,0,0,0.00,0.00,0.00,0.00
2016-09-24 15:40:00,2,50000,0,0.00,2,2,0,2,50000,50000,0,50000,0,0,0,0,0.00,0.00,0.00,0.00
2016-09-24 15:50:00,2,50000,0,0.00,2,2,0,2,50000,50000,0,50000,0,0,0,0,0.00,0.00,0.00,0.00
2016-09-24 16:00:00,2,50000,0,0.00,2,2,0,2,50000,50000,0,50000,0,0,0,0,0.00,0.00,0.00,0.00
2016-09-24 16:10:00,2,50000,0,0.00,2,2,0,2,50000,50000,0,50000,0,0,0,0,0.00,0.00,0.00,0.00
2016-09-24 16:20:00,2,50000,0,0.00,2,2,0,2,50000,50000,0,50000,0,0,0,0,0.00,0.00,0.00,0.00
2016-09-24 16:30:00,2,50000,0,0.00,2,2,0,2,50000,50000,0,50000,0,0,0,0,0.00,0.00,0.00,0.00
2016-09-24 16:40:00,2,50000,0,0.00,2,2,0,2,50000,50000,0,50000,0,0,0,0,0.00,0.00,0.00,0.00
2016-09-24 16:50:00,2,50000,0,0.00,2,2,0,2,50000,50000,0,50000,0,0,0,0,0.00,0.00,0.00,0.00
2016-09-24 17:00:00,2,50000,0,0.00,2,2,0,2,50000,50000,0,50000,0,0,0,0,0.00,0.00,0.00,0.00
2016-09-24 17:10:00,2,50000,0,0.00,2,2,0,2,50000,50000,0,50000,0,0,0,0,0.00,0.00,0.00,0.00
2016-09-24 17:20:00,2,50000,0,0.00,2,2,0,2,50000,50000,0,50000,0,0,0,0,0.00,0.00,0.00,0.00
2016-09-24 17:30:00,2,50000,0,0.00,2,2,0,2,50000,50000,0,50000,0,0,0,0,0.00,0.00,0.00,0.00
2016-09-24 17:40:00,2,50000,0,0.00,2,2,0,2,50000,50000,0,50000,0,0,0,0,0.00,0.00,0.00,0.00
2016-09-24 17:50:00,2,50000,0,0.00,2,2,0,2,50000,50000,0,50000,0,0,0,0,0.00,0.00,0.00,0.00
2016-09-24 18:00:00,2,50000,0,0.00,2,2,0,2,50000,50000,0,50000,0,0,0,0,0.00,0.00,0.00,0.00
2016-09-24 18:10:00,2,50000,0,0.00,2,2,0,2,50000,50000,0,50000,0,0,0,0,0.00,0.00,0.00,0.00
2016-09-24 18:20:00,2,50000,0,0.00,2,2,0,2,50000,50000,0,50000,0,0,0,0,0.00,0.00,0.00,0.00
2016-09-24 18:30:00,2,50000,0,0.00,2,2,0,2,50000,50000,0,50000,0,0,0,0,0.00,0.00,0.00,0.00
2016-09-24 18:40:00,2,50000,0,0.00,2,2,0,2,50000,50000,0,50000,0,0,0,0,0.00,0.00,0.00,0.00
2016-09-24 18:50:00,2,50000,0,0.00,2,2,0,2,50000,50000,0,50000,0,0,0,0,0.00,0.00,0.00,0.00
2016-09-24 19:00:00,2,50000,0,0.00,2,2,0,2,50000,50000,0,50000,0,0,0,0,0.00,0.00,0.00,0.00
2016-09-24 19:10:00,2,50000,0,0.00,2,2,0,2,50000,50000,0,50000,0,0,0,0,0.00,0.00,0.00,0.00
2016-09-24 19:20:00,2,50000,0,0.00,2,2,0,2,50000,50000,0,50000,0,0,0,0,0.00,0.00,0.00,0.00
2016-09-24 19:30:00,2,50000,0,0.00,2,2,0,2,50000,50000,0,50000,0,0,0,0,0.00,0.00,0.00,0.00
2016-09-24 19:40:00,2,50000,0,0.00,2,2,0,2,50000,50000,0,50000,0,0,0,0,0.00,0.00,0.00,0.00
2016-09-24 19:50:00,2,50000,0,0.00,2,2,0,2,50000,50000,0,50000,0,0,0,0,0.00,0.00,0.00,0.00
2016-09-24 20:00:00,2,50000,0,0.00,2,2,0,2,50000,50000,0,50000,0,0,0,0,0.00,0.00,0.00,0.00
2016-09-24 20:10:00,2,50000,0,0.00,2,2,0,2,50000,50000,0,50000,0,0,0,0,0.00,0.00,0.00,0.00
2016-09-24 20:20:00,2,50000,0,0.00,2,2,0,2,50000,50000,0,50000,0,0,0,0,0.00,0.00,0.00,0.00
2016-09-24 20:30:00,2,50000,0,0.00,2,2,0,2,50000,50000,0,50000,0,0,0,0,0.00,0.00,0.00,0.00
2016-09-24 20:40:00,2,50000,0,0.00,2,2,0,2,50000,50000,0,50000,0,0,0,0,0.00,0.00,0.00,0.00
2016-09-24 20:50:00,2,50000,0,0.00,2,2,0,2,50000,50000,0,50000,0,0,0,0,0.00,0.00,0.00,0.00
2016-09-24 21:00:00,2,50000,0,0.00,2,2,0,2,50000,50000,0,50000,0,0,0,0,0.00,0.00,0.00,0.00
2016-09-24 21:10:00,2,50000,0,0.00,2,2,0,2,50000,50000,0,50000,0,0,0,0,0.00,0.00,0.00,0.00
2016-09-24 21:20:00,2,50000,0,0.00,2,2,0,2,50000,50000,0,50000,0,0,0,0,0.00,0.00,0.00,0.00
2016-09-24 21:30:00,2,50000,0,0.00,2,2,0,2,50000,50000,0,50000,0,0,0,0,0.00,0.00,0.00,0.00
2016-09-24 21:40:00,2,50000,0,0.00,2,2,0,2,50000,50000,0,50000,0,0,0,0,0.00,0.00,0.00,0.00
2016-09-24 21:50:00,2,50000,0,0.00,2,2,0,2,50000,50000,0,50000,0,0,0,0,0.00,0.00,0.00,0.00
2016-09-24 22:00:00,2,50000,0,0.00,2,2,0,2,50000,50000,0,50000,0,0,0,0,0.00,0.00,0.00,0.00
2016-09-24 22:10:00,2,50000,0,0.00,2,2,0,2,50000,50000,0,50000,0,0,0,0,0.00,0.00,0.00,0.00
2016-09-24 22:20:00,2,50000,0,0.00,2,2,0,2,50000,50000,0,50000,0,0,0,0,0.00,0.00,0.00,0.00
2016-09-24 22:30:00,2,50000,0,0.00,2,2,0,2,50000,50000,0,50000,0,0,0,0,0.00,0.00,0.00,0.00
2016-09-24 22:40:00,2,50000,0,0.00,2,2,0,2,50000,50000,0,50000,0,0,0,0,0.00,0.00,0.00,0.00
2016-09-24 22:50:00,2,50000,0,0.00,2,2,0,2,50000,50000,0,50000,0,0,0,0,0.00,0.00,0.00,0.00
2016-09-24 23:00:00,2,49992,0,0.00,2,2,0,2,49919,50000,24,50000,0,0,0,0,0.00,0.00,0.00,0.00
2016-09-24 23:10:00,2,48666,0,0.00,2,2,0,2,41750,50000,2467,49684,0,0,0,0,0.00,0.00,0.00,0.00
2016-09-24 23:20:00,2,49911,0,0.00,2,2,0,2,49113,50000,266,50000,0,0,0,0,0.00,0.00,0.00,0.00
2016-09-24 23:30:00,2,49952,0,0.00,2,2,0,2,49515,50000,146,50000,0,0,0,0,0.00,0.00,0.00,0.00
2016-09-24 23:40:00,2,49094,0,0.00,2,2,0,2,44258,50000,1854,50000,0,0,0,0,0.00,0.00,0.00,0.00
2016-09-24 23:50:00,2,30365,24,0.01,2,2,0,2,13662,44117,11244,30953,0,77,26,20,0.00,0.05,0.02,0.00
